Location: Unspecified
(52.4292°N, 19.3359°E)
Time: 19:51:56
(UTC+02:00)

Tiros 1 - Pass Details

Date: 19 May 2024
Orbit: 624 x 657 km, 48.4° (Epoch: 15 June)

Event Time Altitude Azimuth Distance (km) Brightness Sun altitude
Rises 16:03:32 0° 257° (WSW) 2,980 11.5 39.1°
Reaches altitude 10° 16:05:55 10° 252° (WSW) 2,068 11.0 38.7°
Maximum altitude 16:10:33 53° 177° (S) 808 8.3 38.1°
Drops below altitude 10° 16:15:11 10° 101° (E) 2,060 9.4 37.4°
Sets 16:17:33 0° 96° (E) 2,968 10.1 37.1°
